[[{"header":{"parameterUnit":"m.s-1","parameterCategory":2,"la1":30.2991,"la2":30.254,"lo1":-89.0895,"lo2":-89.0444,"dy":0.0017,"dx":0.0017,"nx":28,"ny":28,"refTime":"2024-03-20T03:00:00:Z","depth":"0","parameterNumber":2,"parameterNumberName":"U-component_of_CURRENTS"},"data":[0,0,0,0,0,0,0,0,0,0,0,0,0,0,0,0,0,0,0,0,0,0,0,0,0,0,0,0,0,0,0,0,0,0,0,0,0,0,0,0,0,0,0,0,0,0,0,0,0,0,0,0,0,0,0,0,0,0,0.2077,0.2078,0,0.2099,0.2099,0.2099,0.2098,0.2097,0.2097,0.2097,0.2112,0.2112,0.2113,0,0,0,0,0,0,0,0,0,0,0,0,0,0.2068,0.2068,0.2077,0.2078,0.2078,0.2099,0.2099,0.2099,0.2098,0.2097,0.2097,0.2097,0.2111,0.2112,0.2113,0,0,0,0,0,0,0,0,0,0,0,0,0,0.2079,0.2068,0.2077,0.208,0.2081,0.2099,0.2099,0.2099,0.2098,0.2097,0.2097,0.2097,0.2111,0.2112,0.2113,0.2127,0,0,0.2116,0.2116,0,0,0,0,0,0,0,0,0.2078,0.2079,0.2079,0.208,0.2081,0.2096,0.2101,0.2108,0.2098,0.2091,0.2097,0.2096,0.2106,0.2108,0.2112,0.2128,0.2128,0.2116,0.2117,0.2117,0.2117,0,0,0,0,0,0,0,0.2077,0.2078,0.2085,0.208,0.2081,0.2092,0.2092,0.2103,0.21,0.2091,0.2091,0.2095,0.2106,0.2111,0.2112,0.2128,0.2116,0.2117,0.2117,0.2118,0.2171,0.2172,0,0,0,0,0,0,0.2074,0.2077,0.2085,0.2086,0.2079,0.2092,0.2093,0.2091,0.21,0.2101,0.2095,0.2095,0.2109,0.2111,0.2113,0.2145,0.2117,0.2118,0.2118,0.217,0.2171,0.2172,0,0,0,0,0,0,0.2074,0.2075,0.2084,0.2083,0.2085,0.2093,0.209,0.2091,0.2097,0.2103,0.2104,0.2099,0.2109,0.2111,0.2128,0.2145,0.2118,0.2119,0.2169,0.2171,0.2172,0.2201,0,0,0,0,0,0,0.2074,0.2074,0.2073,0.2083,0.2085,0.2098,0.2091,0.2092,0.21,0.2099,0.2107,0.2108,0.2109,0.2126,0.2129,0.2146,0.212,0.2168,0.217,0.2171,0.2199,0.2203,0.2206,0,0,0,0,0,0.2073,0.2076,0.2073,0.2074,0.2082,0.2098,0.2101,0.2105,0.21,0.2107,0.2113,0.2108,0.2138,0.2128,0.213,0.2148,0.2167,0.2169,0.2171,0.2197,0.2202,0.2206,0,0,0,0,0,0,0.2072,0.2076,0.2073,0.2076,0.2087,0.2098,0.2106,0.2107,0.2117,0.2116,0.2118,0.212,0.2142,0.2141,0.213,0.2169,0.2152,0.2155,0.2171,0.2176,0.2179,0.217,0.2121,0,0,0,0,0,0.2071,0.2073,0.2081,0.2084,0.2089,0.2097,0.2104,0.2107,0.2117,0.2121,0.2124,0.2134,0.2153,0.216,0.2172,0.2192,0.2181,0.2205,0.2209,0.2212,0.2207,0.2222,0.2226,0.2178,0.2178,0.2178,0,0,0.2072,0.2075,0.2075,0.2084,0.2092,0.2107,0.21,0.2113,0.2127,0.2122,0.2138,0.2147,0.2161,0.2186,0.2196,0.2186,0.2217,0.2215,0.2217,0.221,0.2224,0.2229,0.2233,0.218,0.2179,0.2179,0,0,0.2082,0.2077,0.2085,0.2096,0.211,0.2115,0.2119,0.213,0.2135,0.2155,0.2158,0.2174,0.2196,0.221,0.2221,0.2253,0.2238,0.226,0.2272,0.2287,0.229,0.2294,0.227,0.2271,0.2261,0.2261,0.2261,0,0.2085,0.2093,0.2092,0.2109,0.2121,0.212,0.2139,0.2147,0.2161,0.2174,0.2163,0.2206,0.2209,0.225,0.2256,0.2261,0.2254,0.2254,0.2291,0.2294,0.2297,0.2272,0.2272,0.2263,0.2262,0.2262,0.2262,0,0.2105,0.2114,0.2123,0.2139,0.2154,0.2169,0.218,0.2189,0.2192,0.2206,0.2238,0.2244,0.2269,0.2276,0.2273,0.2303,0.2285,0.2295,0.2277,0.2303,0.2275,0.2275,0.2265,0.2264,0.2264,0.2263,0,0,0.2108,0.2131,0.2136,0.2148,0.217,0.2184,0.2207,0.2234,0.2254,0.2264,0.2292,0.2316,0.2315,0.2327,0.2329,0.2332,0.2334,0.2318,0.2318,0.2289,0.234,0.2299,0.2295,0.2355,0.2356,0.2357,0.2305,0,0.2126,0.2159,0.2167,0.2199,0.2217,0.2226,0.2251,0.2275,0.2291,0.2314,0.2326,0.2353,0.2338,0.2349,0.2353,0.2345,0.2338,0.2345,0.2322,0.232,0.2279,0.2296,0.2194,0.2138,0.2305,0.2305,0.2305,0,0.2144,0.2165,0.2197,0.223,0.2239,0.2256,0.2294,0.2318,0.2353,0.2366,0.2393,0.2399,0.241,0.239,0.2383,0.2389,0.2361,0.2345,0.2343,0.2295,0.2282,0.2143,0.2132,0.209,0.2305,0.2305,0.2305,0,0.2147,0.2185,0.2208,0.222,0.2257,0.2273,0.2294,0.2335,0.2365,0.2397,0.2421,0.2437,0.2444,0.2427,0.2394,0.2389,0.2375,0.2367,0.23,0.2296,0.2198,0.2184,0.2138,0.2356,0.2356,0.2356,0.2356,0,0.2159,0.2179,0.2208,0.2221,0.2255,0.2281,0.2324,0.2346,0.239,0.2424,0.2446,0.2467,0.2455,0.245,0.2407,0.2354,0.2389,0.2296,0.2287,0.2203,0.2191,0.2141,0.2136,0.2354,0.2354,0.2355,0.2355,0,0.2153,0.2173,0.22,0.2238,0.2254,0.2277,0.2338,0.2362,0.2412,0.2451,0.2462,0.2493,0.2472,0.2454,0.2416,0.237,0.2254,0.2297,0.2179,0.2158,0.204,0.2041,0.1904,0.1851,0.2195,0.2194,0.2193,0,0.2149,0.2162,0.2205,0.2217,0.223,0.2275,0.2298,0.2359,0.2384,0.2459,0.2463,0.2479,0.2469,0.2409,0.2327,0.2244,0.2198,0.2103,0.2076,0.2015,0.201,0.1948,0.1909,0.1943,0.194,0.1938,0.1936,0,0.2141,0.2152,0.2169,0.2198,0.2218,0.2255,0.2292,0.232,0.238,0.2411,0.2431,0.2437,0.2391,0.2259,0.2176,0.2117,0.2005,0.205,0.2024,0.1838,0.1728,0.1679,0.1978,0.1914,0.1916,0.1918,0.1919,0.192,0.2124,0.2129,0.2147,0.216,0.2186,0.2204,0.2203,0.2238,0.2268,0.2254,0.233,0.2269,0.2192,0.2056,0.1989,0.1823,0.185,0.1738,0.1748,0.1693,0.1629,0.1868,0.1785,0.1786,0.1787,0.1788,0.1789,0,0.2086,0.2091,0.2107,0.2113,0.2104,0.2143,0.2163,0.2132,0.2107,0.2107,0.2092,0.1978,0.1858,0.1774,0.1621,0.1532,0.1463,0.1493,0.1385,0.1368,0.1605,0.1584,0.1409,0.1409,0.1409,0.1409,0.1409,0.1409,0.2068,0.2053,0.2049,0.2014,0.2015,0.1971,0.1957,0.1918,0.1898,0.1769,0.1666,0.1632,0.163,0.1525,0.1382,0.1339,0.1251,0.1181,0.1217,0.1403,0.1426,0.1449,0.1429,0.1224,0.1224,0.0898,0.0896,0.0894]},{"header":{"parameterUnit":"m.s-1","parameterCategory":2,"la1":30.2991,"la2":30.254,"lo1":-89.0895,"lo2":-89.0444,"dy":0.0017,"dx":0.0017,"nx":28,"ny":28,"refTime":"2024-03-20T03:00:00:Z","depth":"0","parameterNumber":3,"parameterNumberName":"V-component_of_CURRENTS"},"data":[0,0,0,0,0,0,0,0,0,0,0,0,0,0,0,0,0,0,0,0,0,0,0,0,0,0,0,0,0,0,0,0,0,0,0,0,0,0,0,0,0,0,0,0,0,0,0,0,0,0,0,0,0,0,0,0,0,0,-0.0048,-0.0048,0,-0.0048,-0.0049,-0.0049,-0.0062,-0.0062,-0.0063,-0.0063,-0.0103,-0.0104,-0.0105,0,0,0,0,0,0,0,0,0,0,0,0,0,-0.0085,-0.0084,-0.0048,-0.0048,-0.0048,-0.0048,-0.0049,-0.0049,-0.0062,-0.0062,-0.0063,-0.0063,-0.0103,-0.0104,-0.0105,0,0,0,0,0,0,0,0,0,0,0,0,0,-0.0077,-0.0084,-0.0048,-0.0053,-0.0053,-0.0048,-0.0049,-0.0049,-0.0062,-0.0062,-0.0063,-0.0063,-0.0102,-0.0104,-0.0105,-0.0108,0,0,-0.0109,-0.011,0,0,0,0,0,0,0,0,-0.0078,-0.0076,-0.0052,-0.0053,-0.0053,-0.0054,-0.0076,-0.007,-0.0062,-0.0061,-0.0063,-0.0063,-0.0089,-0.0091,-0.0093,-0.011,-0.0112,-0.0109,-0.011,-0.0111,-0.0111,0,0,0,0,0,0,0,-0.0078,-0.0076,-0.005,-0.0052,-0.0052,-0.0064,-0.0063,-0.0075,-0.0076,-0.0061,-0.0061,-0.0058,-0.0089,-0.0092,-0.0094,-0.0112,-0.0109,-0.011,-0.0111,-0.0112,-0.013,-0.013,0,0,0,0,0,0,-0.0072,-0.0077,-0.005,-0.005,-0.0064,-0.0063,-0.0062,-0.0055,-0.0075,-0.0077,-0.0058,-0.0059,-0.0089,-0.0092,-0.0096,-0.0096,-0.0111,-0.0112,-0.0113,-0.0131,-0.013,-0.013,0,0,0,0,0,0,-0.0073,-0.007,-0.005,-0.0062,-0.006,-0.0062,-0.0054,-0.0055,-0.0055,-0.0072,-0.0075,-0.0056,-0.0089,-0.0094,-0.01,-0.0098,-0.0112,-0.0114,-0.0131,-0.013,-0.013,-0.0099,0,0,0,0,0,0,-0.0074,-0.007,-0.0065,-0.0062,-0.0059,-0.0042,-0.0053,-0.0054,-0.0051,-0.0053,-0.0071,-0.0075,-0.009,-0.0098,-0.0102,-0.01,-0.0115,-0.0131,-0.0131,-0.013,-0.0101,-0.0098,-0.0095,0,0,0,0,0,-0.0076,-0.0066,-0.0065,-0.0062,-0.0051,-0.0042,-0.0042,-0.0046,-0.0051,-0.0047,-0.0059,-0.0075,-0.0097,-0.0099,-0.0103,-0.0102,-0.0132,-0.0131,-0.013,-0.0102,-0.0098,-0.0095,0,0,0,0,0,0,-0.0083,-0.0067,-0.0065,-0.0052,-0.0045,-0.0043,-0.004,-0.0042,-0.0048,-0.0051,-0.007,-0.0074,-0.008,-0.0093,-0.0095,-0.0105,-0.0117,-0.0117,-0.0094,-0.0091,-0.0089,-0.0078,-0.0116,0,0,0,0,0,-0.008,-0.0068,-0.0057,-0.0047,-0.0042,-0.004,-0.0038,-0.0038,-0.0041,-0.0044,-0.0056,-0.007,-0.008,-0.0087,-0.0098,-0.0103,-0.0112,-0.0105,-0.0102,-0.01,-0.0094,-0.0099,-0.0096,-0.0127,-0.0127,-0.0127,0,0,-0.0081,-0.007,-0.0064,-0.0048,-0.0044,-0.0032,-0.004,-0.0031,-0.0025,-0.0048,-0.0047,-0.006,-0.0078,-0.0083,-0.0087,-0.0094,-0.0096,-0.0099,-0.0097,-0.0092,-0.0097,-0.0094,-0.0092,-0.0127,-0.0127,-0.0127,0,0,-0.0074,-0.0065,-0.0052,-0.0043,-0.003,-0.0026,-0.0021,-0.0016,-0.0017,-0.0014,-0.003,-0.0038,-0.0054,-0.0065,-0.0073,-0.0062,-0.008,-0.0068,-0.0048,-0.0052,-0.005,-0.0048,-0.0057,-0.0056,-0.0068,-0.0068,-0.0068,0,-0.0077,-0.0055,-0.0048,-0.0033,-0.0024,-0.0021,-0.0007,-0.0006,-0.0004,0.0001,-0.001,-0.0024,-0.0044,-0.0047,-0.0045,-0.0056,-0.0062,-0.0059,-0.0048,-0.0046,-0.0045,-0.0055,-0.0054,-0.0067,-0.0067,-0.0067,-0.0067,0,-0.0058,-0.0042,-0.0033,-0.0011,-0.0003,0.0011,0.0018,0.0024,0.0024,0.0028,0.0029,0.0006,-0.0002,-0.0012,-0.0027,-0.0024,-0.0033,-0.0043,-0.0056,-0.0039,-0.0051,-0.0051,-0.0064,-0.0065,-0.0065,-0.0066,0,0,-0.0058,-0.0026,-0.0022,-0.0005,0.0011,0.0025,0.0035,0.0052,0.007,0.0061,0.0077,0.0052,0.0045,0.0035,0.0013,0.0006,0.0006,-0.0012,-0.0013,-0.0019,-0.0004,-0.0012,-0.0012,0.0,0.0001,0.0001,-0.0018,0,-0.0044,-0.0007,0.0,0.0031,0.0052,0.0056,0.007,0.0084,0.0093,0.011,0.0089,0.0095,0.0061,0.0059,0.0045,0.0023,0.0009,0.0012,-0.002,-0.0021,-0.0028,-0.0011,0.0019,0.0005,-0.0018,-0.0018,-0.0018,0,-0.0024,0.0,0.0034,0.0067,0.0076,0.0089,0.0122,0.0137,0.0155,0.0161,0.0161,0.0149,0.0135,0.0104,0.0069,0.0074,0.0036,0.0013,0.0011,-0.0005,-0.0028,-0.0015,0.0006,-0.0048,-0.0017,-0.0017,-0.0018,0,-0.001,0.0025,0.0055,0.0066,0.0101,0.0113,0.0129,0.0154,0.0185,0.0198,0.0225,0.0198,0.0198,0.0151,0.0095,0.0085,0.0059,0.0037,-0.0008,-0.001,0.0005,0.0005,-0.0026,0.0008,0.0008,0.0008,0.0008,0,0.0011,0.0036,0.0066,0.0086,0.0129,0.0136,0.0185,0.0198,0.0232,0.029,0.0255,0.0292,0.0212,0.0188,0.012,0.0064,0.0075,0.0002,-0.0011,0.0016,0.0017,-0.0039,-0.0075,0.0007,0.0007,0.0008,0.0008,0,0.003,0.0046,0.009,0.0126,0.0141,0.0174,0.023,0.0272,0.0292,0.0365,0.0373,0.0369,0.034,0.0253,0.0181,0.0108,0.0016,0.0015,0.0048,0.004,-0.0055,-0.009,-0.0147,-0.017,-0.0033,-0.0033,-0.0033,0,0.0046,0.007,0.0126,0.016,0.0179,0.0228,0.0272,0.0302,0.0357,0.0429,0.0472,0.0457,0.0479,0.0358,0.022,0.0097,0.0022,0.0025,0.0006,-0.005,-0.0098,-0.0134,-0.0152,0.0035,0.0035,0.0036,0.0036,0,0.0079,0.0098,0.0138,0.021,0.0259,0.0323,0.0385,0.0439,0.0495,0.0567,0.0655,0.0675,0.0559,0.0459,0.0265,0.017,-0.0003,0.0027,-0.0032,-0.0047,-0.0084,-0.0115,0.0028,0.0039,0.0038,0.0038,0.0038,0.0038,0.0109,0.0145,0.0199,0.0269,0.0332,0.0417,0.0482,0.0567,0.0675,0.08,0.0794,0.0858,0.0675,0.0427,0.0284,0.0035,0.0017,-0.0033,-0.007,-0.0101,-0.0122,0.0023,0.0018,0.0018,0.0017,0.0017,0.0017,0,0.0151,0.0191,0.0256,0.0343,0.0422,0.0445,0.0562,0.0647,0.0798,0.0909,0.0993,0.0941,0.0732,0.048,0.0139,-0.0024,-0.0092,-0.0118,-0.0154,-0.0168,-0.0032,-0.0027,-0.0038,-0.0038,-0.0038,-0.0038,-0.0038,-0.0038,0.0174,0.024,0.0274,0.0406,0.0471,0.0584,0.0658,0.0802,0.0909,0.1069,0.1115,0.1109,0.0916,0.0335,-0.0035,-0.0122,-0.0232,-0.0259,-0.0326,-0.0224,-0.0219,-0.0214,-0.0217,-0.0268,-0.0268,-0.043,-0.0431,-0.0433]}],[{"header":{"parameterUnit":"m.s-1","parameterCategory":2,"la1":30.2991,"la2":30.254,"lo1":-89.0895,"lo2":-89.0444,"dy":0.0017,"dx":0.0017,"nx":28,"ny":28,"refTime":"2024-03-20T03:00:00:Z","depth":"2","parameterNumber":2,"parameterNumberName":"U-component_of_CURRENTS"},"data":[0,0,0,0,0,0,0,0,0,0,0,0,0,0,0,0,0,0,0,0,0,0,0,0,0,0,0,0,0,0,0,0,0,0,0,0,0,0,0,0,0,0,0,0,0,0,0,0,0,0,0,0,0,0,0,0,0,0,0.1613,0.1613,0,0.163,0.163,0.163,0.1641,0.1641,0.1641,0.1641,0.1668,0.1669,0.1669,0,0,0,0,0,0,0,0,0,0,0,0,0,0.161,0.161,0.1613,0.1613,0.1613,0.163,0.163,0.163,0.1641,0.1641,0.1641,0.1641,0.1668,0.1669,0.1669,0,0,0,0,0,0,0,0,0,0,0,0,0,0.1618,0.161,0.1613,0.1621,0.1622,0.163,0.163,0.163,0.1641,0.1641,0.1641,0.1641,0.1668,0.1669,0.167,0.1673,0,0,0.1673,0.1673,0,0,0,0,0,0,0,0,0.1617,0.1618,0.1619,0.162,0.1621,0.1633,0.1639,0.1645,0.1641,0.1634,0.1641,0.1641,0.1658,0.1659,0.1662,0.1674,0.1675,0.1673,0.1673,0.1674,0.1674,0,0,0,0,0,0,0,0.1617,0.1617,0.1619,0.162,0.1621,0.1631,0.1631,0.164,0.1645,0.1634,0.1635,0.1637,0.1658,0.1661,0.1663,0.1676,0.1673,0.1673,0.1674,0.1674,0.1724,0.1724,0,0,0,0,0,0,0.1614,0.1616,0.1619,0.162,0.162,0.163,0.1631,0.1629,0.1644,0.1647,0.1637,0.1638,0.1659,0.1661,0.1664,0.1708,0.1674,0.1674,0.1675,0.1723,0.1724,0.1725,0,0,0,0,0,0,0.1613,0.1613,0.1618,0.1619,0.162,0.163,0.1628,0.163,0.1643,0.1646,0.1649,0.1649,0.1659,0.1662,0.1678,0.1707,0.1675,0.1676,0.1722,0.1723,0.1724,0.1771,0,0,0,0,0,0,0.1613,0.1613,0.1616,0.1619,0.162,0.163,0.1628,0.163,0.1643,0.1644,0.1658,0.166,0.166,0.1677,0.1679,0.1708,0.1677,0.1721,0.1723,0.1724,0.1769,0.1774,0.1778,0,0,0,0,0,0.1613,0.1614,0.1616,0.1617,0.1622,0.163,0.1632,0.164,0.1644,0.1652,0.1659,0.166,0.1688,0.1678,0.1681,0.1711,0.1721,0.1722,0.1724,0.1767,0.1773,0.1778,0,0,0,0,0,0,0.1615,0.1615,0.1618,0.1619,0.1628,0.1632,0.164,0.1646,0.1659,0.1662,0.1666,0.1669,0.1697,0.1692,0.1682,0.1728,0.1706,0.1708,0.1737,0.1743,0.1748,0.173,0.1677,0,0,0,0,0,0.1616,0.1617,0.1622,0.1625,0.163,0.1638,0.1645,0.165,0.1658,0.1664,0.1673,0.1685,0.1704,0.1713,0.1724,0.1746,0.1735,0.1767,0.1771,0.1775,0.1762,0.1784,0.1789,0.173,0.173,0.173,0,0,0.1617,0.1618,0.1619,0.1626,0.1633,0.1644,0.1643,0.1655,0.1668,0.1665,0.1688,0.1702,0.1713,0.174,0.1753,0.1742,0.1786,0.1778,0.1781,0.1765,0.1786,0.1792,0.1797,0.1731,0.1731,0.1731,0,0,0.1621,0.1622,0.1628,0.1637,0.165,0.1653,0.166,0.1671,0.1682,0.1703,0.1711,0.1732,0.1758,0.177,0.1781,0.1814,0.1811,0.183,0.1841,0.1864,0.1868,0.1873,0.1862,0.1865,0.1832,0.1833,0.1833,0,0.1627,0.1629,0.1632,0.1644,0.1654,0.1659,0.1674,0.1685,0.1701,0.1718,0.1716,0.1766,0.1769,0.1811,0.1819,0.1825,0.1828,0.1823,0.187,0.1874,0.1877,0.1866,0.1868,0.1835,0.1835,0.1834,0.1834,0,0.1636,0.1642,0.1647,0.1661,0.1676,0.1686,0.1702,0.1718,0.1732,0.1749,0.1794,0.1802,0.1832,0.1845,0.1839,0.1878,0.1868,0.1876,0.1856,0.1886,0.1872,0.1874,0.1838,0.1838,0.1837,0.1836,0,0,0.1631,0.1649,0.1651,0.1665,0.1686,0.1698,0.1723,0.1751,0.1776,0.18,0.1835,0.1865,0.1878,0.1888,0.1898,0.1906,0.1927,0.19,0.19,0.1889,0.196,0.1912,0.1909,0.1956,0.1957,0.1957,0.1938,0,0.1637,0.1657,0.1666,0.1692,0.1708,0.1725,0.175,0.1781,0.1806,0.1838,0.1864,0.1901,0.1896,0.1918,0.1929,0.193,0.1935,0.1929,0.1931,0.193,0.1885,0.1911,0.1761,0.1729,0.194,0.194,0.194,0,0.1645,0.1655,0.1678,0.1714,0.1724,0.1741,0.1786,0.1813,0.1859,0.1882,0.1925,0.1945,0.1968,0.1956,0.1973,0.1976,0.1965,0.1956,0.1956,0.1892,0.1886,0.1734,0.1724,0.1943,0.1943,0.1943,0.1942,0,0.1638,0.1669,0.1685,0.1696,0.1732,0.1752,0.178,0.183,0.1866,0.1914,0.1944,0.1981,0.2004,0.2005,0.1992,0.199,0.1996,0.1995,0.1938,0.1934,0.1792,0.1774,0.1999,0.1999,0.1999,0.1999,0.1999,0,0.1635,0.1651,0.1684,0.1687,0.1724,0.176,0.1808,0.1838,0.1894,0.1931,0.1972,0.1998,0.202,0.2031,0.2006,0.1977,0.2016,0.1932,0.1931,0.1803,0.1788,0.1962,0.1958,0.1999,0.1999,0.1999,0.1999,0,0.1625,0.1638,0.1665,0.1702,0.1717,0.1752,0.1823,0.1849,0.1913,0.1957,0.1975,0.2024,0.2028,0.2038,0.2029,0.1995,0.1967,0.1947,0.178,0.1759,0.1879,0.1878,0.187,0.1868,0.1867,0.1866,0.1865,0,0.1617,0.1627,0.1672,0.1684,0.1698,0.1753,0.1775,0.1847,0.1873,0.1958,0.1962,0.2005,0.2,0.1983,0.1932,0.1886,0.1936,0.1716,0.168,0.1868,0.1869,0.1869,0.187,0.1504,0.15,0.1497,0.1494,0,0.16,0.162,0.1628,0.166,0.168,0.172,0.1759,0.1783,0.1851,0.1878,0.1894,0.1903,0.1908,0.1789,0.1758,0.1711,0.1711,0.165,0.1899,0.1569,0.1524,0.1524,0.1536,0.1466,0.1469,0.1471,0.1472,0.1473,0.1582,0.1592,0.16,0.1623,0.1646,0.1657,0.1649,0.1675,0.169,0.1691,0.1766,0.1717,0.1708,0.1577,0.15,0.144,0.1561,0.1467,0.1476,0.1488,0.1459,0.1415,0.1328,0.133,0.1332,0.1333,0.1335,0,0.1548,0.1556,0.1566,0.1565,0.1545,0.1596,0.1602,0.1554,0.1504,0.154,0.1533,0.1382,0.1302,0.13,0.1164,0.1141,0.1128,0.1083,0.1051,0.108,0.1106,0.1056,0.0819,0.0817,0.0816,0.0814,0,0,0.153,0.1505,0.1499,0.1445,0.1452,0.1399,0.1382,0.1312,0.1304,0.1229,0.1195,0.1278,0.1291,0.1055,0.1003,0.0891,0.0986,0.0853,0.1271,0.1266,0.129,0.1332,0.1289,0,0,0,0,0]},{"header":{"parameterUnit":"m.s-1","parameterCategory":2,"la1":30.2991,"la2":30.254,"lo1":-89.0895,"lo2":-89.0444,"dy":0.0017,"dx":0.0017,"nx":28,"ny":28,"refTime":"2024-03-20T03:00:00:Z","depth":"2","parameterNumber":3,"parameterNumberName":"V-component_of_CURRENTS"},"data":[0,0,0,0,0,0,0,0,0,0,0,0,0,0,0,0,0,0,0,0,0,0,0,0,0,0,0,0,0,0,0,0,0,0,0,0,0,0,0,0,0,0,0,0,0,0,0,0,0,0,0,0,0,0,0,0,0,0,0.0194,0.0194,0,0.02,0.02,0.02,0.0185,0.0185,0.0185,0.0184,0.0147,0.0146,0.0146,0,0,0,0,0,0,0,0,0,0,0,0,0,0.0147,0.0148,0.0194,0.0194,0.0194,0.02,0.02,0.0199,0.0185,0.0185,0.0184,0.0184,0.0147,0.0146,0.0146,0,0,0,0,0,0,0,0,0,0,0,0,0,0.016,0.0149,0.0194,0.0189,0.0189,0.02,0.02,0.0199,0.0185,0.0185,0.0184,0.0184,0.0148,0.0146,0.0145,0.0148,0,0,0.0142,0.0142,0,0,0,0,0,0,0,0,0.016,0.0162,0.0189,0.0189,0.0189,0.0193,0.017,0.0181,0.0185,0.0185,0.0184,0.0184,0.016,0.0158,0.0158,0.0146,0.0144,0.0142,0.0141,0.0141,0.0141,0,0,0,0,0,0,0,0.0159,0.0161,0.0194,0.019,0.0189,0.0179,0.018,0.0172,0.0173,0.0185,0.0184,0.0188,0.0159,0.0159,0.0157,0.0144,0.0142,0.0141,0.014,0.014,0.013,0.0131,0,0,0,0,0,0,0.0163,0.0161,0.0194,0.0195,0.0175,0.018,0.0182,0.0191,0.0174,0.0171,0.0188,0.0187,0.0161,0.0158,0.0155,0.0157,0.0141,0.014,0.0139,0.013,0.013,0.0131,0,0,0,0,0,0,0.0162,0.0166,0.0194,0.0179,0.0182,0.0182,0.0192,0.0191,0.0189,0.0177,0.0173,0.0187,0.0161,0.0157,0.0154,0.0155,0.0139,0.0139,0.0129,0.013,0.0131,0.0159,0,0,0,0,0,0,0.0161,0.0166,0.0171,0.0179,0.0183,0.0203,0.0192,0.0191,0.0193,0.0192,0.0175,0.0171,0.016,0.0155,0.0153,0.0153,0.0138,0.0129,0.013,0.013,0.0158,0.0161,0.0163,0,0,0,0,0,0.016,0.0172,0.0172,0.0175,0.0191,0.0204,0.0205,0.0202,0.0194,0.0197,0.0188,0.0172,0.0158,0.0155,0.0152,0.0152,0.0129,0.013,0.013,0.0157,0.016,0.0163,0,0,0,0,0,0,0.0153,0.0173,0.0172,0.0189,0.0196,0.0202,0.0207,0.0203,0.0199,0.0196,0.0179,0.0175,0.0171,0.016,0.0158,0.0152,0.0139,0.014,0.016,0.0164,0.0166,0.0179,0.0137,0,0,0,0,0,0.0156,0.0171,0.0183,0.0196,0.0201,0.0203,0.0206,0.0206,0.0206,0.0203,0.0192,0.0181,0.0173,0.0168,0.0159,0.0158,0.0145,0.0155,0.0158,0.016,0.0169,0.0155,0.0157,0.0134,0.0134,0.0134,0,0,0.0156,0.0169,0.0176,0.0195,0.02,0.0216,0.0203,0.0214,0.0223,0.0199,0.0204,0.0189,0.0175,0.0174,0.0171,0.0165,0.0159,0.0161,0.0164,0.0171,0.0156,0.0158,0.016,0.0134,0.0134,0.0134,0,0,0.017,0.0177,0.0196,0.0206,0.022,0.0224,0.0228,0.0234,0.0232,0.0237,0.0221,0.0213,0.0201,0.0194,0.0187,0.0201,0.0174,0.0191,0.0215,0.0201,0.0203,0.0204,0.0186,0.0186,0.0193,0.0193,0.0193,0,0.0168,0.0198,0.0202,0.0223,0.0235,0.023,0.0251,0.0251,0.0254,0.0258,0.0243,0.023,0.0213,0.0215,0.0217,0.0207,0.0192,0.0203,0.0205,0.0206,0.0207,0.0188,0.0187,0.0194,0.0194,0.0194,0.0194,0,0.0199,0.0221,0.0233,0.0261,0.027,0.0289,0.0293,0.03,0.0294,0.0294,0.0292,0.0269,0.0262,0.0251,0.0237,0.0236,0.022,0.0209,0.0197,0.0211,0.019,0.0189,0.0196,0.0196,0.0195,0.0195,0,0,0.0205,0.0248,0.0253,0.0274,0.0294,0.0309,0.0325,0.0344,0.036,0.0344,0.0358,0.0334,0.0316,0.0308,0.0283,0.0269,0.0256,0.0242,0.0241,0.0225,0.0219,0.0209,0.0206,0.0241,0.0241,0.0241,0.02,0,0.0231,0.0281,0.0292,0.0335,0.0362,0.0365,0.0384,0.0395,0.0396,0.0406,0.0378,0.0376,0.0338,0.033,0.0311,0.0273,0.0254,0.0268,0.0208,0.0206,0.0195,0.0205,0.0222,0.0187,0.0198,0.0198,0.0198,0,0.026,0.0294,0.0342,0.0386,0.0397,0.0418,0.0452,0.0467,0.0476,0.0474,0.0462,0.0436,0.0412,0.0375,0.0317,0.0324,0.0275,0.0242,0.0239,0.0221,0.0194,0.0176,0.0184,0.0195,0.0196,0.0196,0.0196,0,0.0277,0.0328,0.037,0.0385,0.0431,0.0451,0.0471,0.049,0.0514,0.0513,0.0528,0.0487,0.0472,0.0408,0.0329,0.0321,0.0263,0.0243,0.0188,0.0186,0.0186,0.0184,0.0203,0.0203,0.0203,0.0203,0.0203,0,0.0309,0.0343,0.0383,0.0412,0.0463,0.0476,0.0527,0.0541,0.0566,0.0608,0.056,0.0577,0.0479,0.0431,0.035,0.0267,0.0276,0.0197,0.0178,0.0196,0.0195,0.0193,0.0192,0.0201,0.0202,0.0202,0.0202,0,0.0327,0.0354,0.0405,0.0457,0.0478,0.051,0.0571,0.0611,0.0622,0.0674,0.0675,0.0644,0.0581,0.0479,0.0378,0.0303,0.0219,0.0184,0.0208,0.0193,0.0143,0.0145,0.0122,0.0121,0.0121,0.012,0.012,0,0.0344,0.0373,0.0437,0.0475,0.0503,0.0556,0.0606,0.0638,0.0687,0.0724,0.0758,0.0706,0.069,0.0531,0.0384,0.024,0.0216,0.0159,0.0149,0.0153,0.0137,0.0139,0.0141,0.0155,0.0154,0.0154,0.0154,0,0.0378,0.0395,0.0443,0.0516,0.0574,0.0641,0.0711,0.0761,0.081,0.085,0.0892,0.0876,0.0727,0.0584,0.038,0.0284,0.0182,0.0153,0.0156,0.0175,0.0181,0.0166,0.0167,0.0154,0.0154,0.0154,0.0154,0.0154,0.0402,0.0432,0.0494,0.0564,0.0634,0.0723,0.079,0.0865,0.0948,0.1012,0.0989,0.096,0.0795,0.0532,0.0359,0.0172,0.0187,0.0122,0.0123,0.0124,0.0137,0.0143,0.0111,0.011,0.011,0.011,0.011,0,0.0434,0.0472,0.0539,0.0631,0.0715,0.0743,0.0864,0.0934,0.1037,0.1066,0.1087,0.0922,0.0757,0.0555,0.0286,0.0135,0.0122,0.0077,0.0097,0.01,0.0102,0.0114,0.0081,0.008,0.0079,0.0079,0,0,0.0453,0.052,0.0554,0.0689,0.0753,0.087,0.0943,0.1039,0.1088,0.1121,0.1086,0.1034,0.0804,0.0599,0.0391,0.0233,0.0199,0.0199,0.0244,0.0297,0.03,0.0152,0.0177,0,0,0,0,0]}],[{"header":{"parameterUnit":"m.s-1","parameterCategory":2,"la1":30.2991,"la2":30.254,"lo1":-89.0895,"lo2":-89.0444,"dy":0.0017,"dx":0.0017,"nx":28,"ny":28,"refTime":"2024-03-20T03:00:00:Z","depth":"4","parameterNumber":2,"parameterNumberName":"U-component_of_CURRENTS"},"data":[0,0,0,0,0,0,0,0,0,0,0,0,0,0,0,0,0,0,0,0,0,0,0,0,0,0,0,0,0,0,0,0,0,0,0,0,0,0,0,0,0,0,0,0,0,0,0,0,0,0,0,0,0,0,0,0,0,0,0.0796,0.0796,0,0.0798,0.0798,0.0798,0.0816,0.0817,0.0818,0.0818,0.084,0.084,0.084,0,0,0,0,0,0,0,0,0,0,0,0,0,0.0798,0.0798,0.0796,0.0796,0.0797,0.0798,0.0798,0.0798,0.0816,0.0817,0.0818,0.0819,0.084,0.084,0.084,0,0,0,0,0,0,0,0,0,0,0,0,0,0.0796,0.0797,0.0796,0.0807,0.0809,0.0798,0.0798,0.0798,0.0816,0.0817,0.0818,0.0819,0.084,0.084,0.084,0.082,0,0,0.084,0.084,0,0,0,0,0,0,0,0,0.0796,0.0796,0.0806,0.0807,0.0808,0.081,0.0807,0.0807,0.0816,0.0811,0.0818,0.0819,0.0832,0.0833,0.0828,0.0821,0.0822,0.084,0.084,0.084,0.084,0,0,0,0,0,0,0,0.0797,0.0796,0.0795,0.0806,0.0807,0.0809,0.0809,0.0806,0.0815,0.0812,0.0814,0.0816,0.0833,0.0828,0.0829,0.0823,0.084,0.084,0.084,0.0839,0.0887,0.0888,0,0,0,0,0,0,0.0799,0.0796,0.0795,0.0795,0.0806,0.0808,0.0809,0.0807,0.0815,0.0817,0.0816,0.0817,0.0827,0.0829,0.083,0.0876,0.084,0.0839,0.0839,0.0885,0.0887,0.0888,0,0,0,0,0,0,0.0799,0.0799,0.0795,0.0798,0.0798,0.0807,0.0804,0.0806,0.0826,0.0818,0.0821,0.0836,0.0828,0.083,0.085,0.0875,0.0839,0.0839,0.0884,0.0886,0.0888,0.0926,0,0,0,0,0,0,0.0799,0.0799,0.0807,0.0798,0.0798,0.0803,0.0804,0.0806,0.0825,0.0828,0.0836,0.0838,0.0829,0.085,0.085,0.0874,0.0839,0.0882,0.0885,0.0887,0.0923,0.0929,0.0934,0,0,0,0,0,0.0799,0.0799,0.0807,0.0808,0.0805,0.0803,0.0804,0.0812,0.0826,0.0834,0.0845,0.0839,0.0865,0.085,0.085,0.0875,0.0881,0.0884,0.0887,0.092,0.0927,0.0933,0,0,0,0,0,0,0.0802,0.0801,0.081,0.081,0.0816,0.0808,0.0817,0.0825,0.0839,0.0851,0.0847,0.0849,0.0878,0.0872,0.0855,0.0898,0.0875,0.0878,0.0901,0.0908,0.0913,0.0919,0.0839,0,0,0,0,0,0.0807,0.0809,0.081,0.0814,0.0819,0.0825,0.083,0.0838,0.0844,0.0852,0.0861,0.0874,0.0884,0.0893,0.0899,0.0915,0.0922,0.0935,0.094,0.0945,0.0951,0.0992,0.1002,0.0898,0.0898,0.0898,0,0,0.0809,0.0811,0.0812,0.0816,0.0822,0.0826,0.083,0.0844,0.0856,0.0852,0.088,0.0893,0.0894,0.0916,0.093,0.0917,0.0977,0.0948,0.0952,0.0956,0.0997,0.1007,0.1016,0.09,0.0899,0.0899,0,0,0.0806,0.0818,0.0818,0.0824,0.084,0.0843,0.0854,0.0864,0.0881,0.0904,0.091,0.094,0.0953,0.0961,0.0964,0.1003,0.1005,0.1013,0.1043,0.1084,0.1093,0.11,0.1113,0.1122,0.1015,0.1015,0.1015,0,0.0814,0.0809,0.0819,0.0822,0.0831,0.0854,0.0859,0.0873,0.0893,0.0916,0.0923,0.0973,0.0972,0.1003,0.1019,0.1015,0.1034,0.1016,0.1091,0.1099,0.1106,0.1118,0.1127,0.1017,0.1017,0.1017,0.1016,0,0.0802,0.081,0.0813,0.0825,0.0837,0.0846,0.0867,0.0897,0.0928,0.0948,0.1004,0.1014,0.1048,0.1055,0.1047,0.1103,0.1097,0.1093,0.1072,0.1119,0.1128,0.1137,0.102,0.1019,0.1019,0.1018,0,0,0.079,0.0802,0.0806,0.0815,0.0841,0.0846,0.0882,0.0917,0.0953,0.0995,0.1042,0.1073,0.1105,0.1112,0.1118,0.115,0.121,0.115,0.1151,0.116,0.1293,0.1189,0.1188,0.123,0.1232,0.1233,0.1274,0,0.0783,0.0785,0.0796,0.0811,0.0815,0.0853,0.088,0.0923,0.0971,0.1025,0.1069,0.1115,0.1118,0.1147,0.1184,0.1207,0.1238,0.1199,0.125,0.1251,0.115,0.1197,0.124,0.1281,0.1283,0.1284,0.1285,0,0.0765,0.0771,0.078,0.0808,0.0816,0.0836,0.09,0.0928,0.1009,0.1051,0.1123,0.116,0.1222,0.1216,0.1294,0.1276,0.1292,0.1304,0.1306,0.1203,0.1163,0.1228,0.1301,0.13,0.1299,0.1298,0.1297,0,0.0742,0.076,0.0769,0.0777,0.0813,0.0842,0.0875,0.0948,0.0991,0.1083,0.1136,0.121,0.1264,0.1308,0.1344,0.1333,0.1419,0.14,0.1319,0.1311,0.1374,0.1366,0.1456,0.1456,0.1456,0.1456,0.1456,0,0.0717,0.0727,0.0765,0.0768,0.0798,0.0834,0.0888,0.0936,0.1021,0.1076,0.1157,0.1214,0.1298,0.1356,0.1369,0.1372,0.1445,0.1331,0.1322,0.1387,0.138,0.138,0.137,0.1457,0.1457,0.1457,0.1457,0,0.0687,0.0706,0.0723,0.0768,0.0787,0.0815,0.0892,0.0929,0.102,0.1099,0.1135,0.1247,0.1314,0.1371,0.1436,0.1397,0.1405,0.1386,0.1448,0.144,0.126,0.1253,0.1293,0.129,0.1287,0.1285,0.1283,0,0.0666,0.0671,0.0722,0.0736,0.0761,0.081,0.0841,0.0924,0.0967,0.1105,0.1133,0.1243,0.1302,0.1315,0.1372,0.1382,0.1366,0.1353,0.1307,0.1261,0.1248,0.1244,0.1241,0.1279,0.1278,0.1278,0.1277,0,0.0632,0.0662,0.0679,0.0708,0.0741,0.0766,0.082,0.0848,0.0945,0.1043,0.1108,0.115,0.122,0.1259,0.1281,0.1285,0.1349,0.1324,0.1329,0.1286,0.1244,0.1233,0.1232,0.1268,0.1269,0.127,0.127,0,0.0618,0.0625,0.0651,0.0671,0.0704,0.0707,0.0742,0.0786,0.0839,0.0987,0.1007,0.1116,0.1212,0.121,0.123,0.1225,0.1199,0.1146,0.1159,0.117,0.1109,0.1036,0.0995,0,0,0,0,0,0.0598,0.0593,0.0606,0.0612,0.0638,0.0656,0.0716,0.0755,0.0857,0.0874,0.0938,0.0993,0.1038,0.1094,0.1063,0.1161,0.1194,0.1117,0.1137,0.1216,0.1227,0.1165,0,0,0,0,0,0,0.058,0.0592,0.0587,0.0555,0.0552,0.0566,0.0604,0.067,0.0682,0.0799,0.0832,0.0918,0.0979,0.1048,0.1043,0.1056,0.1041,0.1182,0.1178,0.121,0.1219,0.1228,0.1168,0,0,0,0,0]},{"header":{"parameterUnit":"m.s-1","parameterCategory":2,"la1":30.2991,"la2":30.254,"lo1":-89.0895,"lo2":-89.0444,"dy":0.0017,"dx":0.0017,"nx":28,"ny":28,"refTime":"2024-03-20T03:00:00:Z","depth":"4","parameterNumber":3,"parameterNumberName":"V-component_of_CURRENTS"},"data":[0,0,0,0,0,0,0,0,0,0,0,0,0,0,0,0,0,0,0,0,0,0,0,0,0,0,0,0,0,0,0,0,0,0,0,0,0,0,0,0,0,0,0,0,0,0,0,0,0,0,0,0,0,0,0,0,0,0,0.0265,0.0265,0,0.0281,0.0281,0.0281,0.0286,0.0286,0.0286,0.0286,0.0286,0.0286,0.0286,0,0,0,0,0,0,0,0,0,0,0,0,0,0.0221,0.0222,0.0265,0.0265,0.0265,0.0281,0.0281,0.0281,0.0286,0.0286,0.0286,0.0286,0.0286,0.0286,0.0286,0,0,0,0,0,0,0,0,0,0,0,0,0,0.0239,0.0223,0.0265,0.027,0.0271,0.0281,0.0281,0.0281,0.0286,0.0286,0.0286,0.0286,0.0286,0.0286,0.0286,0.0288,0,0,0.0286,0.0286,0,0,0,0,0,0,0,0,0.0238,0.024,0.0269,0.027,0.027,0.0282,0.0266,0.0283,0.0286,0.028,0.0286,0.0286,0.0283,0.0283,0.0286,0.0288,0.0288,0.0286,0.0286,0.0286,0.0286,0,0,0,0,0,0,0,0.0237,0.024,0.0271,0.0269,0.027,0.0265,0.0268,0.0269,0.0281,0.028,0.0281,0.0283,0.0283,0.0286,0.0286,0.0288,0.0286,0.0286,0.0286,0.0286,0.0295,0.0296,0,0,0,0,0,0,0.0237,0.0239,0.027,0.0271,0.0254,0.0266,0.0269,0.0278,0.0282,0.0282,0.0283,0.0283,0.0286,0.0286,0.0286,0.0306,0.0286,0.0286,0.0286,0.0295,0.0295,0.0296,0,0,0,0,0,0,0.0236,0.024,0.027,0.0255,0.0259,0.0267,0.0277,0.0278,0.0285,0.0284,0.0284,0.029,0.0286,0.0286,0.0293,0.0306,0.0286,0.0286,0.0295,0.0295,0.0295,0.0335,0,0,0,0,0,0,0.0234,0.0239,0.0247,0.0255,0.026,0.0282,0.0277,0.0279,0.0287,0.0287,0.0289,0.0289,0.0286,0.0293,0.0293,0.0305,0.0286,0.0295,0.0295,0.0295,0.0333,0.0337,0.0339,0,0,0,0,0,0.0233,0.0246,0.0247,0.0251,0.027,0.0282,0.0284,0.0289,0.0287,0.0294,0.0295,0.0289,0.0296,0.0294,0.0294,0.0306,0.0294,0.0295,0.0295,0.0332,0.0336,0.0339,0,0,0,0,0,0,0.0231,0.0248,0.025,0.0267,0.0275,0.0283,0.0292,0.0292,0.0299,0.03,0.0295,0.0295,0.0305,0.0298,0.0296,0.0308,0.0293,0.0293,0.0321,0.0324,0.0327,0.0331,0.0286,0,0,0,0,0,0.0234,0.0251,0.026,0.0275,0.028,0.0285,0.0291,0.0295,0.0301,0.0304,0.0305,0.0304,0.0306,0.0309,0.0309,0.0318,0.0298,0.0324,0.0327,0.0329,0.0331,0.0309,0.0311,0.0297,0.0297,0.0297,0,0,0.0237,0.0249,0.0258,0.0275,0.0283,0.03,0.0289,0.0303,0.0317,0.0302,0.0322,0.0316,0.031,0.0322,0.0325,0.0318,0.0322,0.033,0.0332,0.0333,0.031,0.0311,0.0312,0.0297,0.0297,0.0297,0,0,0.0255,0.0263,0.0283,0.0292,0.0307,0.0312,0.0317,0.0327,0.0332,0.0346,0.0339,0.0339,0.0345,0.0344,0.0343,0.036,0.0338,0.036,0.0382,0.0361,0.0362,0.0362,0.0338,0.0336,0.0363,0.0363,0.0363,0,0.0257,0.0286,0.0289,0.031,0.0324,0.032,0.0344,0.0348,0.0359,0.0366,0.0357,0.0362,0.0356,0.0368,0.0374,0.0368,0.035,0.0371,0.0365,0.0365,0.0365,0.034,0.0338,0.0365,0.0365,0.0364,0.0364,0,0.0289,0.0313,0.0326,0.0355,0.0367,0.0387,0.0394,0.0404,0.0406,0.0409,0.0418,0.0404,0.0407,0.0403,0.0396,0.0397,0.0382,0.0371,0.0357,0.0369,0.0342,0.0338,0.0368,0.0367,0.0366,0.0366,0,0,0.0296,0.0342,0.0347,0.0371,0.0394,0.041,0.0432,0.0453,0.0469,0.0465,0.048,0.0475,0.046,0.0457,0.0441,0.0423,0.0405,0.04,0.0398,0.0379,0.0354,0.0338,0.0332,0.0392,0.0392,0.0392,0.0336,0,0.0323,0.0374,0.039,0.0438,0.0465,0.0471,0.0495,0.0509,0.0511,0.0522,0.0502,0.0507,0.0482,0.0481,0.0459,0.0418,0.0398,0.0421,0.0343,0.0341,0.0328,0.0329,0.0391,0.0333,0.0332,0.0332,0.0331,0,0.0352,0.0385,0.0438,0.0488,0.0501,0.0527,0.0563,0.0582,0.0589,0.0588,0.0581,0.056,0.0538,0.051,0.0444,0.0459,0.0412,0.0374,0.0371,0.034,0.0319,0.0318,0.0325,0.0325,0.0326,0.0326,0.0326,0,0.0362,0.042,0.0466,0.0483,0.0534,0.0561,0.0587,0.0605,0.0626,0.0626,0.0631,0.0599,0.0581,0.052,0.0442,0.0442,0.0361,0.0349,0.029,0.0288,0.0302,0.0302,0.0301,0.0301,0.0301,0.0301,0.0301,0,0.0386,0.0424,0.0478,0.0504,0.0561,0.0585,0.0637,0.0652,0.0673,0.0695,0.0664,0.066,0.0581,0.0525,0.0453,0.036,0.0367,0.0292,0.0273,0.0319,0.0322,0.0299,0.03,0.0299,0.0299,0.03,0.03,0,0.0392,0.0427,0.0484,0.0546,0.057,0.0609,0.0675,0.0705,0.0718,0.074,0.074,0.0703,0.0627,0.0542,0.0437,0.0374,0.0287,0.0253,0.031,0.0294,0.0225,0.0228,0.018,0.0179,0.0178,0.0177,0.0177,0,0.0401,0.0432,0.051,0.0544,0.0578,0.064,0.0684,0.0725,0.0752,0.0762,0.0768,0.0711,0.067,0.0512,0.0422,0.0283,0.0262,0.0215,0.0219,0.0227,0.0213,0.0217,0.0222,0.0175,0.0175,0.0175,0.0175,0,0.0415,0.0443,0.0489,0.056,0.0617,0.0681,0.0741,0.0763,0.08,0.0809,0.078,0.0704,0.0619,0.0503,0.0397,0.0298,0.0244,0.0205,0.0207,0.021,0.022,0.0208,0.0214,0.0172,0.0172,0.0172,0.0172,0,0.0422,0.0451,0.0511,0.0572,0.0642,0.0702,0.0737,0.077,0.08,0.0803,0.079,0.0704,0.0659,0.0511,0.0414,0.0314,0.0286,0.0249,0.0247,0.0249,0.0286,0.031,0.0271,0,0,0,0,0,0.0426,0.046,0.0517,0.0588,0.0654,0.07,0.0767,0.0795,0.0825,0.0802,0.0797,0.0716,0.057,0.0514,0.041,0.0395,0.027,0.0269,0.0227,0.0155,0.0158,0.0188,0,0,0,0,0,0,0.0431,0.0484,0.0513,0.0588,0.0635,0.0716,0.0762,0.0785,0.0774,0.078,0.0705,0.0676,0.0538,0.0622,0.0401,0.0373,0.0329,0.0207,0.0204,0.0153,0.0156,0.0159,0.019,0,0,0,0,0]}]]